GW0843 Weather Reports


Display with metric or nautical units.
time (UTC)temp
F
wind
direction
speed
MPH
gust
MPH
rain 1hr
in
rain 24hr
in
rain mn
in
humidity
%
barometer
mb
20260504173629 61 247 4.0 6.0 0.00 0.00 0.00 30 1013.5
20260504172628 60 269 5.0 7.0 0.00 0.00 0.00 31 1013.5
20260504171627 61 323 5.0 8.0 0.00 0.00 0.00 29 1013.4
20260504170626 60 22 8.0 11.0 0.00 0.00 0.00 29 1013.6
20260504150606 60 300 10.0 13.0 0.00 0.00 0.00 31 1013.8
20260504140557 59 293 4.0 5.0 0.00 0.00 0.00 29 1013.9
20260504130550 53 254 6.0 7.0 0.00 0.00 0.00 33 1013.6
20260504110531 34 252 0.0 0.0 0.00 0.00 0.00 65 1013.9
20260504100516 33 205 0.0 0.0 0.00 0.00 0.00 67 1014.3
20260504081454 33 272 2.0 2.0 0.00 0.00 0.00 64 1015.2
20260504080452 34 272 0.0 0.0 0.00 0.00 0.00 64 1015.1
20260504050421 40 296 0.0 0.0 0.00 0.00 0.00 50 1016.7
20260504045419 38 300 0.0 0.0 0.00 0.00 0.00 53 1016.5
20260504044419 39 190 1.0 1.0 0.00 0.00 0.00 52 1016.5
20260504043419 41 247 1.0 1.0 0.00 0.00 0.00 48 1016.6
20260504042419 40 261 0.0 0.0 0.00 0.00 0.00 50 1016.6
20260504041418 42 261 1.0 1.0 0.00 0.00 0.00 47 1016.5
20260504040412 42 277 2.0 2.0 0.00 0.00 0.00 48 1016.7
20260504035411 42 299 2.0 2.0 0.00 0.00 0.00 50 1016.8
20260504034411 45 281 1.0 1.0 0.00 0.00 0.00 45 1016.7
20260504033406 45 200 1.0 1.0 0.00 0.00 0.00 41 1016.2
20260504032405 44 200 1.0 1.0 0.00 0.00 0.00 43 1016.4
20260504031405 45 216 1.0 1.0 0.00 0.00 0.00 45 1016.5
20260504030404 46 293 2.0 2.0 0.00 0.00 0.00 43 1016.5
20260504025403 47 294 3.0 3.0 0.00 0.00 0.00 42 1016.2
20260504024402 48 270 2.0 2.0 0.00 0.00 0.00 40 1016.0
20260504023401 51 249 0.0 0.0 0.00 0.00 0.00 38 1016.2
20260504022400 52 194 0.0 1.0 0.00 0.00 0.00 35 1016.0
20260504021359 53 265 3.0 3.0 0.00 0.00 0.00 36 1016.1
20260504020359 55 210 1.0 2.0 0.00 0.00 0.00 29 1015.9
20260504015357 55 219 2.0 3.0 0.00 0.00 0.00 33 1015.9
20260504014355 57 251 2.0 2.0 0.00 0.00 0.00 32 1015.6
20260504013350 59 215 1.0 1.0 0.00 0.00 0.00 27 1015.7
20260504012350 59 340 0.0 0.0 0.00 0.00 0.00 27 1015.9
20260504011350 60 228 2.0 3.0 0.00 0.00 0.00 25 1015.7
20260504010348 61 297 3.0 5.0 0.00 0.00 0.00 22 1015.5
20260504005347 61 283 6.0 7.0 0.00 0.00 0.00 22 1015.6
20260504004343 61 241 7.0 9.0 0.00 0.00 0.00 22 1015.6
20260504003341 62 267 7.0 8.0 0.00 0.00 0.00 22 1015.6
20260504002340 61 304 4.0 5.0 0.00 0.00 0.00 22 1015.7
20260504001340 62 326 7.0 8.0 0.00 0.00 0.00 23 1015.6
20260504000340 62 303 7.0 9.0 0.00 0.00 0.00 23 1015.6
20260503235335 63 256 8.0 9.0 0.00 0.00 0.00 24 1016.1
20260503234330 62 260 6.0 9.0 0.00 0.00 0.00 26 1015.9
20260503233329 62 274 6.0 9.0 0.00 0.00 0.00 26 1016.0
20260503232329 64 264 4.0 6.0 0.00 0.00 0.00 22 1015.7
20260503231329 64 313 3.0 3.0 0.00 0.00 0.00 19 1016.0
20260503230328 64 275 5.0 7.0 0.00 0.00 0.00 20 1015.7
20260503225328 63 277 7.0 8.0 0.00 0.00 0.00 26 1015.7
20260503224327 63 338 3.0 3.0 0.00 0.00 0.00 24 1015.7
20260503223322 63 261 5.0 6.0 0.00 0.00 0.00 23 1016.1
20260503222322 63 303 5.0 5.0 0.00 0.00 0.00 22 1016.2
20260503221319 64 320 5.0 6.0 0.00 0.00 0.00 24 1016.2
20260503220317 66 352 3.0 6.0 0.00 0.00 0.00 21 1016.2
20260503215317 64 10 1.0 2.0 0.00 0.00 0.00 22 1016.6
20260503214312 64 276 9.0 10.0 0.00 0.00 0.00 21 1016.5
20260503213307 63 4 5.0 6.0 0.00 0.00 0.00 23 1016.7
20260503212301 62 276 7.0 9.0 0.00 0.00 0.00 25 1016.7
20260503211301 63 295 7.0 8.0 0.00 0.00 0.00 26 1016.8
20260503210259 63 227 5.0 9.0 0.00 0.00 0.00 28 1017.3
20260503205256 63 323 4.0 5.0 0.00 0.00 0.00 26 1017.6
20260503204256 62 338 6.0 8.0 0.00 0.00 0.00 28 1018.0
20260503203251 63 275 11.0 15.0 0.00 0.00 0.00 25 1018.1
20260503202246 63 226 2.0 2.0 0.00 0.00 0.00 24 1018.0
20260503201247 64 288 7.0 8.0 0.00 0.00 0.00 23 1017.6
20260503200245 63 342 5.0 7.0 0.00 0.00 0.00 24 1017.7
20260503195245 63 312 2.0 3.0 0.00 0.00 0.00 24 1018.0
20260503194244 62 256 5.0 6.0 0.00 0.00 0.00 26 1018.2
20260503193243 62 321 6.0 7.0 0.00 0.00 0.00 24 1018.3
20260503192239 62 273 6.0 7.0 0.00 0.00 0.00 24 1018.4
20260503191234 62 234 1.0 3.0 0.00 0.00 0.00 24 1018.6
20260503190233 63 275 12.0 18.0 0.00 0.00 0.00 25 1018.6
20260503185232 62 279 4.0 6.0 0.00 0.00 0.00 26 1018.9
20260503184229 61 332 5.0 7.0 0.00 0.00 0.00 26 1018.8
20260503183229 62 273 7.0 11.0 0.00 0.00 0.00 26 1019.6
20260503182225 62 311 6.0 7.0 0.00 0.00 0.00 27 1019.6
20260503181224 62 271 9.0 14.0 0.00 0.00 0.00 26 1019.6
20260503180219 62 285 7.0 8.0 0.00 0.00 0.00 27 1019.8
20260503175219 62 315 8.0 10.0 0.00 0.00 0.00 26 1019.4